Zurück zum Katalog

COSMOS 2499 DEB

LostPO
NORAD 55736·DEBRIS·🇷🇺 Russia

Gestartet May 23, 2014 von Plesetsk Cosmodrome

Loading…

Nächste Überflüge (nächste 24 Stunden)

TLE

VeraltetSource: Space-Track

Epoche: May 23, 2023, 02:28 UTC

1 55736U 14028AY  23143.10281863  .00006068  00000-0  18316-1 0  9993
2 55736  82.3627 285.9200 0251481 117.5628 245.1272 12.96414465 14485

Verfolge COSMOS 2499 DEB in Echtzeit mit AllMySat

Download on the App Store